Wind_Speed
22 24 25 26 27 26 24 22 19 17 17 16 15 16 15 15 15 14 13 12 11 11 11 10 9 8 8 8 9 8 6 7 8 9 10 11 12 12 12 13 14 15 16 17 16 14 13 12 11 13 17 21 25 25 25 25 24 24 24 23 23 20 17 17 12 10 15 16 13 12 14 14 12 10 10 9 9 8 7 7 6 5 4 2 1
24 26 26 27 27 26 23 21 18 18 19 18 18 17 16 16 16 15 14 12 11 10 10 10 9 8 8 9 10 9 7 7 8 9 10 11 12 11 11 13 15 15 15 15 14 15 15 14 13 13 15 19 23 25 25 25 24 25 26 25 25 23 19 17 14 12 15 17 15 14 15 15 14 12 11 9 8 6 5 5 5 6 6 4 3
21 23 24 25 24 23 21 19 19 19 20 20 19 18 17 16 16 15 14 12 10 9 9 10 10 9 9 9 11 10 8 7 8 9 10 10 11 11 10 12 13 14 14 13 13 14 16 17 17 16 16 17 19 21 22 23 23 24 26 27 27 26 22 19 15 14 17 18 16 16 16 15 15 13 11 10 9 8 6 5 5 6 7 6 4
18 21 22 21 20 20 19 18 19 18 19 19 17 16 15 16 15 14 12 10 9 9 9 10 10 10 10 10 11 11 9 8 8 8 10 10 10 11 11 12 13 13 12 13 14 15 16 18 18 18 18 18 18 19 18 18 18 19 22 25 28 26 23 20 16 14 17 18 17 17 16 15 14 12 12 12 12 12 10 7 6 7 8 8 7
18 20 21 18 16 17 18 18 18 18 18 17 16 15 15 15 14 12 11 10 9 10 9 9 10 10 11 11 11 11 10 9 9 9 10 10 11 11 12 13 13 13 12 12 14 15 16 17 17 16 17 18 18 17 17 15 14 14 16 19 23 24 22 20 16 15 17 18 19 18 17 15 13 12 13 13 13 13 11 8 7 8 9 10 9
20 20 20 18 15 15 16 18 19 19 19 17 15 15 14 14 13 11 10 10 11 11 10 9 9 10 12 12 11 11 10 9 9 9 11 12 12 12 13 14 13 13 13 12 12 13 15 15 15 15 15 16 16 16 16 15 13 13 14 15 18 21 20 18 16 16 17 18 18 18 18 17 15 14 13 13 12 13 11 9 9 10 11 11 9
24 23 22 21 20 19 19 21 22 21 19 17 16 15 14 14 13 11 11 12 13 13 11 10 10 10 11 12 13 11 11 10 10 11 12 12 12 13 14 15 14 14 15 13 12 12 13 13 13 13 13 14 14 14 14 14 14 14 14 15 17 19 18 16 16 16 16 16 17 17 18 18 17 16 14 11 10 11 13 13 12 12 11 10 9
26 27 27 26 26 26 24 22 21 20 18 17 15 13 13 14 13 12 12 14 15 14 13 12 12 11 11 11 12 12 12 12 12 12 13 13 12 13 16 18 17 15 15 15 14 13 13 12 12 12 12 12 12 13 13 14 15 15 15 15 15 16 16 15 16 16 16 16 16 17 17 17 17 16 14 12 11 12 15 16 15 15 13 10 9
26 26 27 28 27 26 24 22 21 19 18 16 14 13 13 13 12 12 13 15 16 15 14 13 13 13 13 13 13 12 12 13 12 12 13 13 13 14 16 18 19 18 17 17 17 16 16 15 14 14 13 13 12 12 12 13 15 16 16 16 15 15 15 15 15 15 16 16 16 16 17 17 17 16 15 15 14 14 16 17 16 15 13 10 9
19 18 20 21 20 18 19 19 18 17 15 13 13 14 14 13 14 13 13 13 15 15 15 13 13 13 13 14 14 13 13 13 13 12 13 14 14 15 17 19 19 19 19 19 19 19 19 18 17 17 16 16 15 14 14 13 14 14 15 16 17 17 16 16 15 15 15 16 16 16 17 18 18 17 17 16 16 15 16 18 17 15 12 9 7
17 18 19 18 16 15 15 13 12 13 13 13 13 12 12 13 14 13 11 11 13 16 15 14 14 13 12 13 15 16 14 14 14 14 14 15 15 15 17 20 21 20 20 21 21 21 20 20 18 17 17 17 17 16 16 15 15 14 14 15 16 17 16 16 16 15 16 16 16 16 17 18 18 16 16 16 15 14 16 18 17 15 12 9 6
24 22 19 18 17 16 15 13 12 11 11 10 9 8 8 9 9 9 7 6 8 12 14 14 14 14 13 13 15 17 16 15 15 15 15 16 17 17 17 20 22 22 22 23 23 23 22 22 20 19 18 18 18 18 17 17 17 16 15 15 15 15 16 16 16 16 16 16 17 17 18 18 17 16 16 16 15 15 15 15 15 13 10 7 6
29 26 22 22 21 19 18 17 16 14 13 11 11 12 11 9 8 7 5 4 3 4 7 9 11 12 12 12 14 16 18 19 19 19 18 18 19 20 20 21 23 24 25 25 25 24 24 24 24 23 22 21 21 20 20 19 18 17 17 17 16 16 16 17 17 17 17 18 19 20 20 19 18 17 16 16 16 17 16 14 12 10 7 5 4
32 30 27 26 25 25 23 22 22 21 19 18 16 14 11 7 6 4 3 3 4 3 2 3 5 6 6 7 8 10 12 14 17 20 21 22 23 24 24 24 25 26 27 28 28 26 25 26 27 27 26 25 25 25 24 23 22 21 20 20 20 19 18 19 19 19 19 19 20 21 21 21 20 18 16 16 17 17 16 14 10 7 5 4 3
34 32 31 29 28 27 26 25 26 25 23 22 20 18 15 12 10 7 6 4 3 1 1 2 3 4 4 5 7 7 7 7 10 12 15 17 20 23 26 28 29 29 29 29 30 30 28 27 28 29 29 28 28 28 27 27 25 24 24 24 23 22 21 21 21 20 20 20 21 21 21 20 20 18 17 17 16 14 13 10 8 7 6 5 5
33 32 32 30 29 28 26 25 25 24 23 21 20 20 17 15 13 11 10 9 7 4 2 2 3 4 5 8 10 11 9 8 8 10 11 12 14 17 21 26 29 31 32 32 32 32 32 31 31 31 32 31 31 31 31 30 29 28 28 26 24 22 21 21 20 20 20 19 18 18 18 18 18 17 18 17 15 12 10 9 8 8 8 8 7
32 31 31 30 29 27 26 25 25 24 23 23 22 20 17 15 14 12 11 10 10 8 7 7 6 5 3 5 7 9 8 8 9 10 11 12 13 14 16 19 23 26 29 31 33 34 35 35 35 35 35 35 35 35 34 33 32 30 27 22 20 20 20 21 21 20 19 17 15 13 12 13 15 16 17 15 12 10 9 9 10 10 9 9 7
27 28 28 27 27 26 24 23 23 22 22 22 22 20 18 16 15 13 11 11 10 9 9 8 7 7 5 4 6 6 7 7 9 9 10 10 11 12 14 17 20 22 24 26 29 32 34 35 35 36 37 38 37 37 37 37 35 32 27 21 20 23 23 22 22 20 17 14 12 11 13 15 16 16 14 11 9 8 8 8 10 10 9 8 6
24 22 22 22 22 23 23 22 22 21 20 19 18 17 17 16 14 13 12 11 11 10 9 8 8 8 7 7 8 8 8 8 8 9 10 10 11 11 12 15 18 21 23 25 26 27 29 31 33 35 37 38 38 37 39 36 30 26 24 23 24 27 27 24 22 20 16 14 14 15 17 17 15 13 12 10 10 9 7 7 9 9 8 7 7
22 21 20 19 20 21 21 20 20 19 17 16 14 13 13 14 14 14 13 12 11 10 10 9 9 8 8 8 8 9 10 10 10 10 11 11 12 13 13 14 16 19 22 25 27 28 28 28 30 32 35 37 37 38 37 31 23 21 23 25 27 28 28 25 22 18 16 17 18 18 18 16 14 13 13 12 11 10 8 8 8 7 7 7 7
19 19 19 19 20 19 18 17 16 15 14 13 12 11 12 12 13 13 13 12 11 10 10 10 9 8 8 8 8 9 11 12 12 12 11 12 12 14 15 15 15 17 19 23 27 29 30 30 30 31 33 34 36 38 36 31 28 27 26 26 27 28 27 26 23 19 18 20 21 19 18 17 15 14 13 13 12 11 10 9 8 7 6 6 6
18 18 18 18 18 17 16 14 14 13 13 12 12 12 11 11 11 11 11 11 10 10 10 10 10 9 9 9 9 9 10 12 13 14 13 13 13 14 15 16 16 17 19 21 24 26 28 30 31 31 32 33 34 36 36 34 33 28 23 22 25 27 27 25 23 21 21 22 22 20 19 17 16 15 14 13 13 12 11 10 9 7 6 4 3
17 17 17 16 15 14 13 12 12 12 13 12 12 12 11 11 10 10 11 11 10 10 11 11 11 11 11 10 10 11 11 12 13 14 15 15 15 15 16 16 15 16 18 20 22 24 25 27 28 30 32 33 33 34 35 35 33 27 22 22 25 26 24 24 24 25 25 25 23 22 20 19 18 17 16 15 15 13 12 10 9 7 4 2 1
16 16 15 14 13 12 11 12 12 13 13 14 13 13 12 12 11 11 11 11 11 11 12 12 12 13 13 13 13 12 13 13 13 14 15 16 17 17 17 17 16 16 18 19 20 21 22 24 25 26 30 32 33 33 35 36 35 30 25 25 26 25 24 25 27 28 28 27 25 24 22 21 20 19 18 16 15 14 12 10 8 5 3 2 2
17 16 14 12 12 11 11 12 13 13 14 15 14 14 14 13 12 11 11 11 11 12 12 12 13 13 14 15 15 15 14 14 14 14 15 16 17 17 18 18 17 17 18 19 20 19 20 21 22 24 26 28 29 31 33 34 34 32 28 27 27 26 26 27 29 29 28 27 25 24 23 21 20 19 18 17 16 15 13 10 8 5 3 3 3
18 17 15 12 11 11 11 12 13 13 14 14 14 14 13 14 13 13 12 11 12 12 12 12 13 14 14 15 17 18 18 17 15 15 15 16 16 17 17 18 17 17 18 19 19 19 18 18 20 23 25 25 26 28 30 31 30 29 28 28 29 30 30 30 32 32 29 27 26 24 23 22 20 19 18 18 16 13 10 8 7 5 4 3 3
16 15 15 14 13 12 12 12 13 14 14 14 14 14 14 14 14 13 13 13 13 13 13 13 14 15 17 19 21 22 22 21 19 17 15 16 17 18 19 19 18 18 18 18 20 20 17 16 18 21 23 23 23 24 26 28 27 26 26 27 30 33 33 34 37 36 32 29 28 27 25 24 22 21 19 17 14 10 7 6 6 6 4 3 4
15 14 14 15 15 14 14 14 15 15 15 15 16 16 16 15 14 13 13 13 14 14 15 15 15 16 19 22 23 23 22 21 19 17 16 17 18 20 21 22 21 19 19 19 21 21 18 15 16 18 20 20 20 21 23 24 23 24 26 26 27 28 31 33 35 33 31 29 29 28 27 25 23 22 19 15 12 10 8 5 5 6 5 4 6
16 15 14 15 16 16 16 17 17 17 16 16 17 17 17 17 16 15 13 12 12 13 14 15 17 19 21 21 20 21 22 20 17 15 15 16 18 20 22 24 23 21 20 20 20 19 16 15 14 16 17 17 18 19 20 20 20 21 24 25 23 22 24 27 28 26 27 28 28 28 27 26 24 21 17 14 12 10 8 6 6 6 6 6 7
18 16 15 16 16 17 18 19 19 19 18 18 18 19 19 19 16 14 13 11 10 11 14 16 18 19 19 18 17 18 21 20 17 16 16 17 18 20 22 24 24 23 22 21 19 16 16 15 15 16 17 18 19 19 19 19 19 19 21 23 23 21 22 23 23 24 25 26 27 27 26 25 23 19 16 14 13 11 8 6 7 7 8 8 7
18 17 16 16 16 16 18 20 20 20 18 18 19 21 23 22 17 13 12 12 13 13 13 14 15 15 16 19 19 19 19 18 17 17 17 18 20 21 23 24 24 23 23 21 17 16 17 17 16 17 18 20 22 23 22 21 21 21 20 20 21 23 23 23 23 24 25 25 25 25 24 22 20 17 15 14 13 11 9 7 7 8 7 6 5
16 16 16 15 15 15 16 18 20 19 19 19 18 20 22 23 22 19 16 15 14 15 14 14 16 17 18 19 21 21 19 17 17 17 17 19 20 22 23 24 23 22 21 18 15 15 18 18 19 20 20 22 24 25 26 25 23 23 23 22 22 23 23 24 25 25 25 25 24 23 21 19 17 15 14 12 11 10 8 7 7 6 5 5 5
12 13 13 13 14 14 15 17 18 18 18 18 18 18 19 21 22 23 22 19 17 16 17 18 20 21 20 19 20 20 19 18 17 17 18 18 20 21 23 23 23 20 17 15 15 17 19 20 21 21 22 23 24 24 25 25 24 23 23 23 24 24 24 25 26 25 23 22 21 21 19 17 16 15 13 11 9 8 8 7 5 4 4 5 5
11 12 12 12 12 12 14 15 15 15 15 15 15 15 17 18 19 21 23 23 23 22 22 22 22 21 20 19 20 19 17 15 15 16 16 17 18 19 21 22 21 18 14 13 15 18 20 21 21 22 22 23 24 23 23 24 24 23 22 23 25 27 28 27 26 24 22 21 20 19 18 16 14 12 11 9 7 7 6 5 4 4 4 4 4
9 10 11 11 11 11 12 13 13 13 14 13 13 14 16 18 18 18 19 22 24 25 26 25 22 20 18 19 20 18 14 13 14 15 16 18 18 17 17 17 16 14 12 13 15 18 19 20 21 21 21 22 23 23 24 26 27 27 27 28 30 31 30 28 25 23 21 21 20 18 16 13 11 8 7 6 6 6 6 5 4 4 4 4 4
8 9 10 10 10 10 11 12 12 13 13 13 14 15 16 16 16 16 17 18 20 22 23 23 22 20 17 17 17 16 14 15 16 17 18 20 18 13 11 10 11 12 13 14 16 18 19 21 21 20 20 21 22 23 25 27 28 30 32 33 33 31 28 26 23 21 20 18 18 16 13 11 9 6 5 5 6 6 5 5 5 5 4 4 4
9 10 10 9 9 9 10 11 13 13 13 14 15 15 15 14 14 15 17 17 18 18 19 19 21 22 20 18 17 16 15 16 17 16 17 18 16 13 10 9 11 12 14 15 16 18 20 21 21 20 21 22 23 24 25 27 30 32 33 32 30 28 26 23 20 18 16 15 15 13 11 10 9 7 6 7 6 6 5 6 6 5 3 3 2
9 10 10 10 9 8 9 11 14 15 15 14 14 14 13 14 14 15 16 15 14 14 15 16 18 21 22 21 18 15 14 16 17 16 15 15 14 13 12 11 12 12 14 14 15 17 18 19 19 20 21 22 22 23 26 29 32 32 30 29 27 26 23 21 18 16 15 14 14 13 12 11 10 8 7 6 6 6 7 7 6 3 2 1 2
9 10 10 9 7 7 9 12 14 15 14 13 12 12 13 13 14 13 12 12 12 12 12 14 17 18 20 20 17 12 12 16 18 17 15 13 13 12 11 11 11 11 11 11 11 12 14 15 16 17 18 19 21 25 28 31 31 29 28 28 28 25 23 21 19 16 15 14 14 13 11 10 10 8 6 5 7 8 9 7 4 2 1 1 2
8 10 10 8 6 7 9 12 13 13 12 11 11 11 11 10 10 9 9 10 11 11 12 15 17 16 16 17 16 12 10 13 16 17 14 11 11 13 12 11 10 9 8 8 8 9 10 12 13 14 16 19 22 26 28 29 28 27 27 26 25 24 22 20 17 16 15 15 14 12 10 10 10 9 8 8 9 10 8 5 2 1 1 2 3
8 9 9 6 5 6 9 11 11 11 11 10 10 9 8 6 6 7 8 9 10 10 13 16 16 14 12 12 13 12 10 11 13 13 11 8 9 12 13 12 10 8 6 3 3 4 6 7 9 13 16 20 24 26 28 28 28 26 24 23 23 23 21 18 16 16 16 15 12 11 10 10 10 10 10 10 9 7 5 3 3 3 2 2 4
8 9 8 6 5 6 9 9 10 11 12 11 9 6 5 5 6 6 8 10 10 11 13 15 15 12 10 10 10 11 10 9 9 9 8 7 8 10 12 11 10 8 6 4 3 3 6 9 12 14 18 23 26 27 28 27 25 23 22 22 21 19 16 15 15 16 15 12 10 9 9 10 10 10 10 9 7 5 5 4 4 3 1 4 4
7 9 9 7 6 7 8 9 9 10 12 12 9 5 4 5 6 7 9 10 10 11 13 14 13 12 10 10 9 9 10 9 8 6 6 6 7 9 10 9 8 7 7 7 6 6 10 14 17 19 21 24 25 25 24 22 21 21 21 20 17 15 15 15 16 15 13 10 9 9 10 12 12 12 10 8 6 6 6 5 3 3 3 4 3
7 8 9 8 8 8 8 9 9 9 9 10 9 4 3 5 7 9 11 11 10 11 12 12 12 12 12 12 11 10 10 10 8 6 5 6 6 7 8 8 8 8 9 10 10 11 15 18 19 20 20 21 20 19 19 18 18 18 17 16 14 14 15 16 16 14 11 9 9 11 12 13 13 11 9 7 6 5 5 2 1 2 1 2 3
6 8 9 8 9 9 9 9 9 8 7 7 7 4 2 4 7 9 10 9 10 10 10 10 10 12 13 12 11 10 10 9 8 7 7 7 7 7 7 8 9 10 11 12 12 12 13 15 15 15 16 16 16 16 17 17 15 14 12 11 12 14 16 15 13 11 9 7 9 11 13 13 12 10 9 8 7 4 2 1 1 1 2 2 3
6 7 8 9 9 9 9 8 7 7 6 6 5 3 1 2 5 7 8 8 8 8 9 9 9 10 11 11 11 10 9 10 10 9 9 9 8 8 8 8 9 11 13 14 12 10 11 13 13 14 15 14 14 14 13 12 11 10 9 10 13 15 14 13 11 9 7 7 9 11 13 12 11 10 9 9 6 3 1 1 2 2 2 2 2
6 6 8 8 8 8 7 6 6 6 5 5 3 2 1 1 3 4 6 7 7 7 7 7 8 9 9 10 11 11 11 11 11 11 11 11 11 11 11 11 12 13 14 14 13 13 14 15 16 16 16 15 14 13 12 11 10 10 10 11 12 12 12 10 9 8 8 8 9 11 13 13 12 11 9 7 5 3 3 3 3 4 4 4 5
7 5 7 8 7 6 5 4 5 5 5 5 3 3 3 1 1 3 4 5 6 6 6 6 7 8 9 10 11 11 12 13 13 14 14 14 14 15 15 15 16 16 17 17 17 17 18 18 18 17 17 16 15 14 13 11 10 9 8 8 8 8 9 9 8 8 8 9 10 12 13 13 12 10 8 5 4 5 5 4 3 5 6 7 7
8 5 6 7 5 4 4 3 3 4 5 4 2 3 4 2 1 2 4 5 5 5 4 5 8 10 10 11 11 12 13 14 15 16 16 16 16 16 17 17 18 18 18 19 19 18 17 17 16 15 14 13 12 11 9 8 7 7 6 6 7 7 8 8 8 7 8 10 11 12 12 12 11 8 6 4 5 6 5 3 3 5 7 7 7
10 6 5 5 4 3 3 2 2 2 4 3 2 3 4 2 1 2 3 3 4 4 5 7 9 10 11 11 12 12 13 14 15 15 14 15 14 14 14 15 15 15 16 17 16 15 14 14 13 12 11 11 10 9 8 6 6 7 7 8 9 9 8 8 8 9 10 11 12 11 11 10 9 7 5 4 5 5 4 3 1 3 5 5 6
12 7 4 3 2 3 4 3 2 2 2 2 1 3 3 2 1 1 2 2 3 5 6 7 8 9 10 10 11 11 11 12 12 11 11 11 11 11 11 12 12 12 13 13 13 13 13 12 11 11 10 10 9 9 8 8 8 8 9 10 10 9 9 9 10 10 11 11 11 10 9 8 8 7 5 4 3 3 3 2 1 1 2 3 3
Wind_Direction
173 178 180 181 183 183 182 182 183 186 187 191 199 205 211 214 210 205 202 197 194 193 192 194 196 198 189 179 179 179 180 183 182 186 187 185 183 178 176 173 162 156 157 155 152 153 153 152 162 179 187 193 194 191 192 195 197 199 202 203 202 203 196 182 170 171 190 200 204 197 189 187 187 180 175 177 179 182 188 197 212 217 202 170 148
171 173 175 178 180 181 180 180 183 187 190 196 203 207 213 214 207 205 204 202 204 207 205 201 197 193 185 182 185 186 193 195 191 190 188 185 183 179 176 175 169 164 164 162 158 157 158 155 152 160 174 187 193 193 193 197 201 205 208 210 209 208 203 194 180 173 186 200 207 204 197 198 201 198 195 195 195 193 198 214 227 232 229 219 203
156 161 165 169 171 172 174 178 185 193 197 201 206 209 212 208 204 206 207 208 212 214 210 204 199 194 189 189 190 192 201 208 205 202 199 197 195 194 190 185 181 177 177 178 174 167 163 159 154 155 160 170 181 187 192 199 205 212 214 214 213 211 207 204 198 188 190 197 205 205 202 204 208 208 210 215 217 215 219 234 240 238 234 219 198
150 154 155 157 159 164 170 176 182 188 194 198 202 206 205 200 200 205 210 215 213 207 205 207 206 202 197 198 200 200 206 212 212 208 206 207 206 203 199 194 191 191 193 192 188 182 174 166 161 161 164 166 171 178 185 192 200 209 214 215 215 213 207 206 211 208 198 196 202 205 205 208 213 216 221 229 234 233 236 244 239 230 220 197 184
161 157 155 154 156 164 172 178 182 184 188 194 197 197 196 195 200 209 216 216 210 206 209 212 211 207 202 201 203 204 207 213 215 214 214 214 212 207 201 197 199 203 203 197 191 190 186 179 173 173 174 172 172 177 182 185 188 194 202 210 213 210 205 205 214 216 206 200 201 204 208 213 218 224 230 239 241 235 233 235 223 206 194 182 180
180 174 172 171 174 179 180 183 189 190 191 195 196 194 194 195 201 210 216 215 211 210 212 210 210 210 208 207 207 205 206 214 218 221 219 216 215 213 207 204 208 211 206 199 195 194 194 191 187 186 188 186 183 183 186 188 188 187 189 196 201 201 202 207 214 215 212 208 205 205 210 215 221 226 232 241 242 230 217 206 193 184 182 180 176
182 183 183 182 189 197 194 191 193 192 192 195 195 195 198 200 203 208 211 211 210 211 212 210 209 210 211 212 213 211 212 217 218 218 220 220 221 218 212 210 214 213 209 205 205 203 200 200 198 196 200 204 198 194 193 194 193 192 190 190 192 196 202 211 215 214 215 214 210 209 212 216 222 226 229 235 235 225 211 195 180 175 179 181 173
173 179 182 184 193 200 196 190 189 189 193 195 193 195 201 204 203 205 207 207 209 213 217 217 217 220 221 220 217 216 217 219 220 221 221 221 221 218 212 213 216 216 214 214 218 219 217 216 215 212 212 214 210 205 202 200 198 197 196 196 197 201 204 208 212 216 220 219 217 218 218 220 224 227 228 225 218 216 211 202 189 179 178 176 170
173 175 176 183 194 197 191 188 188 192 197 197 195 199 205 208 209 209 208 207 211 219 224 225 228 232 233 232 227 220 218 220 225 228 225 220 222 221 216 216 220 221 222 223 224 226 227 228 230 232 229 225 223 220 215 211 208 206 205 206 208 208 206 206 209 215 218 219 221 222 222 225 229 230 229 226 224 222 214 205 193 183 180 179 174
166 163 164 175 187 188 186 189 189 188 190 191 194 200 206 213 216 215 213 210 213 219 225 231 237 239 238 237 231 224 220 223 228 231 231 231 234 232 226 225 227 229 230 228 226 228 231 233 236 239 236 232 230 229 225 222 220 218 215 213 211 210 207 207 210 213 215 218 220 220 221 225 229 231 233 233 232 227 214 202 191 181 178 179 179
130 136 149 160 167 172 179 185 180 177 182 192 198 203 211 217 217 216 216 217 219 221 227 234 236 236 239 237 232 230 229 231 233 234 236 240 241 240 236 232 231 233 233 231 232 236 238 239 240 239 236 232 231 232 231 229 227 225 222 219 215 214 214 216 218 218 219 222 222 221 223 228 229 227 229 230 226 218 208 200 191 182 180 183 188
106 115 128 135 139 147 153 154 153 156 168 182 184 178 178 180 179 182 191 206 219 226 232 237 235 232 236 239 236 235 236 236 238 238 239 240 241 242 242 239 235 234 234 235 240 245 246 246 245 241 237 236 236 235 234 233 233 232 231 230 228 227 228 230 232 231 231 233 233 232 233 234 231 226 225 224 217 204 196 194 190 186 190 195 192
90 95 101 109 115 119 124 126 125 124 127 130 139 153 156 145 135 132 130 130 143 185 215 228 231 230 234 240 242 242 241 241 241 240 240 239 238 238 238 240 239 239 240 241 244 248 251 250 247 244 242 241 241 241 240 238 237 238 239 240 239 237 237 239 241 241 243 243 241 243 244 242 239 235 230 222 212 200 191 188 188 189 193 192 181
78 79 80 84 90 97 102 105 103 103 105 106 113 128 133 120 113 106 89 107 118 123 169 207 215 220 229 237 241 242 243 246 247 246 245 243 241 239 238 239 240 243 246 248 248 250 252 250 247 245 244 242 242 242 242 241 240 240 241 242 242 243 244 246 248 249 248 247 246 249 251 250 249 244 231 218 212 204 195 189 188 188 185 176 173
69 69 68 67 71 77 82 85 85 87 91 94 94 95 95 92 87 76 68 80 92 97 285 276 258 255 263 260 254 252 253 261 265 262 259 256 253 249 246 243 243 244 246 248 250 251 252 251 248 247 247 246 245 244 243 241 240 240 242 243 242 244 247 250 253 254 254 253 253 254 254 254 251 242 224 209 204 202 197 192 190 186 173 163 163
62 62 61 60 61 65 68 70 71 72 76 80 79 77 77 78 74 70 73 75 75 81 69 7 335 304 281 272 271 271 276 290 295 289 285 282 275 266 258 252 249 247 246 246 247 249 250 251 250 251 251 250 250 250 247 243 241 241 241 240 240 244 249 253 255 255 256 256 256 257 258 253 243 227 210 200 196 196 194 183 175 172 164 156 158
58 58 58 57 58 59 61 63 62 62 63 64 63 61 61 60 57 54 57 60 59 58 54 42 29 11 318 290 289 283 281 296 305 303 302 299 292 284 277 269 261 255 252 251 249 249 249 249 250 251 252 253 255 253 247 241 239 238 237 238 245 253 254 255 256 255 255 255 254 252 243 226 210 198 193 194 196 198 194 179 171 172 168 162 166
56 56 56 56 55 54 52 52 52 52 53 53 52 50 49 47 44 41 41 42 42 39 36 34 32 25 7 345 332 312 295 297 300 301 306 308 301 294 290 286 278 271 267 263 258 255 253 251 251 251 251 254 255 252 246 242 236 232 232 236 248 257 259 259 259 257 252 245 236 219 201 191 187 187 188 190 187 189 194 186 177 176 174 172 174
58 57 56 53 53 52 48 45 44 42 40 40 39 38 39 38 35 32 32 31 30 26 20 18 19 13 3 352 342 331 322 317 314 313 316 320 315 307 301 295 287 282 280 278 272 267 263 260 258 256 255 254 253 251 250 244 232 226 233 238 243 252 259 259 257 252 241 224 208 196 189 186 184 185 183 177 173 175 181 183 181 183 182 177 176
61 58 55 50 49 48 45 43 42 42 39 35 29 24 24 23 21 21 21 20 19 15 12 13 13 8 359 347 338 334 328 322 320 322 324 327 326 320 313 306 297 288 284 282 279 275 272 269 265 262 260 258 255 255 254 248 237 229 235 241 244 250 254 252 245 237 224 209 198 191 189 184 179 176 172 168 169 173 177 181 185 190 189 180 179
57 53 49 45 43 42 40 40 39 41 40 36 32 28 24 19 15 15 16 16 15 11 8 6 3 1 356 345 335 330 325 320 317 316 317 321 324 322 319 317 310 298 286 280 278 276 273 270 267 265 264 261 258 256 254 253 252 244 239 244 250 251 248 241 230 217 205 199 193 187 184 179 173 171 171 170 175 180 184 184 183 184 185 181 178
51 49 46 44 42 41 40 39 39 38 35 31 30 33 32 26 21 17 14 13 14 14 9 2 355 350 346 342 336 328 321 317 312 309 309 311 314 318 318 318 317 309 295 282 277 274 272 271 269 267 266 264 262 260 258 257 257 251 244 247 250 248 242 231 216 202 194 191 187 182 179 178 175 174 175 175 177 181 180 177 175 173 172 171 176
46 44 44 44 43 42 40 38 38 36 32 27 25 24 23 22 21 20 16 13 12 8 4 1 354 346 340 335 333 329 325 320 313 307 304 302 303 307 311 313 316 314 305 293 284 279 275 273 271 270 268 264 260 258 258 258 259 256 253 251 248 244 235 217 203 195 188 185 183 180 180 181 180 177 177 176 174 174 172 168 166 164 158 148 106
42 42 45 46 45 44 40 36 33 29 24 21 18 17 16 13 11 11 10 9 8 4 360 356 351 347 342 334 329 326 323 321 319 314 308 302 298 298 300 304 310 313 309 304 298 289 280 275 273 271 270 267 262 259 257 257 259 261 260 256 248 238 221 205 198 193 185 181 181 180 179 182 181 177 175 173 169 168 165 159 154 147 129 98 65
47 49 51 52 49 45 38 34 31 27 25 24 23 23 22 17 13 11 6 3 2 359 355 351 346 343 340 334 330 326 323 321 321 319 315 309 301 296 295 295 301 307 308 310 310 301 287 277 272 269 268 268 267 266 263 261 261 262 260 252 240 226 214 204 196 190 183 181 181 178 175 176 177 175 172 168 165 164 159 151 141 127 108 91 75
54 55 54 49 45 40 36 35 33 30 28 27 26 24 20 15 12 10 7 3 1 356 351 347 343 338 335 332 329 326 323 322 322 322 320 314 306 300 295 292 294 302 307 312 316 312 296 278 269 266 266 265 264 264 262 260 258 256 252 242 230 222 216 205 194 187 183 181 180 177 173 171 169 167 165 162 160 159 155 147 136 123 113 101 83
49 52 50 45 42 39 36 33 29 26 25 24 21 17 13 8 4 1 359 355 351 349 346 343 342 338 334 332 329 325 322 320 319 319 321 319 316 311 304 297 297 303 309 314 318 317 307 289 274 268 265 262 259 255 253 251 248 243 239 233 226 221 214 203 193 188 185 182 179 174 169 166 164 161 161 160 156 150 145 141 131 121 111 89 77
38 38 38 36 34 30 26 21 17 16 17 17 14 10 6 3 359 356 354 348 341 339 338 337 338 336 332 328 325 322 319 319 318 317 317 318 318 315 309 303 299 302 309 315 317 316 311 299 281 268 261 255 249 245 243 242 238 232 226 222 219 214 205 196 190 186 183 179 173 167 164 162 160 159 159 159 152 141 134 126 114 107 95 68 60
30 29 28 27 24 21 19 16 12 10 9 9 8 5 360 356 351 347 346 345 340 336 332 329 331 330 326 324 321 316 316 319 320 313 308 307 307 307 305 302 297 295 298 307 313 309 297 286 274 261 251 242 234 232 231 229 225 222 216 210 206 200 192 186 180 177 176 174 167 162 160 159 158 159 158 153 144 135 128 112 96 88 73 54 50
23 25 23 20 16 15 15 12 6 3 1 1 360 355 351 350 349 347 345 344 338 332 326 325 327 327 323 322 322 317 316 319 318 309 301 297 296 296 296 295 292 288 289 298 304 294 276 266 258 249 239 229 221 218 217 212 206 200 196 194 192 186 181 178 174 172 172 169 163 160 160 159 158 158 156 148 139 131 122 102 82 69 59 51 46
17 18 15 10 8 9 9 5 1 357 355 355 354 350 349 351 355 357 355 347 338 333 329 327 330 332 328 327 327 323 318 314 309 303 297 293 291 290 289 289 288 285 285 292 294 279 262 252 246 239 231 222 217 214 208 201 193 185 181 181 181 179 176 176 175 173 168 163 159 160 161 160 157 155 150 142 136 128 117 97 77 67 62 55 41
15 13 7 1 359 359 358 357 356 353 350 348 347 348 350 351 350 351 353 350 342 339 339 340 341 342 339 334 331 326 319 310 303 298 294 289 287 287 286 286 287 284 283 284 279 266 256 249 243 238 228 219 216 212 205 199 191 184 179 174 171 172 173 172 172 169 164 159 159 161 161 158 154 149 142 136 132 125 114 103 93 84 74 57 39
17 10 3 357 351 349 349 348 349 349 346 342 340 343 347 345 341 341 343 345 345 345 346 347 347 345 344 341 336 328 319 311 306 304 300 295 292 290 289 287 287 285 280 270 261 256 253 248 243 239 230 222 217 210 203 198 189 181 177 171 166 166 166 165 163 161 159 159 159 158 157 154 149 143 136 131 125 119 115 113 108 94 71 55 43
16 4 355 346 340 342 345 344 343 342 340 337 335 335 337 335 334 334 336 338 341 343 344 346 348 347 345 342 338 332 324 318 317 315 313 310 304 298 293 290 288 285 276 262 254 253 251 248 243 238 232 224 217 209 201 195 187 180 177 172 165 160 158 158 158 157 157 156 155 152 152 151 145 137 130 125 117 115 118 119 109 93 78 65 44
9 358 348 336 331 338 345 346 345 342 339 339 338 334 332 332 333 335 335 335 335 335 335 339 344 347 346 343 341 340 336 334 334 334 331 326 316 304 296 293 292 288 275 260 254 254 253 252 247 240 231 223 217 210 202 193 186 182 178 169 161 156 154 154 153 153 152 151 149 148 147 142 130 117 111 114 122 130 134 130 119 108 95 70 36
355 351 346 335 328 335 346 350 348 345 343 341 336 331 331 333 334 336 336 334 330 328 331 336 341 345 351 354 350 347 346 345 344 343 342 339 333 324 312 303 299 294 283 270 261 256 255 253 249 241 231 222 216 209 200 191 184 177 170 162 155 152 151 149 147 146 146 147 148 148 143 133 121 115 122 135 142 145 140 131 126 118 94 60 29
342 342 340 333 327 334 349 353 346 338 334 330 326 325 328 331 333 334 333 331 330 331 335 342 345 348 355 2 357 348 347 349 347 343 341 341 343 344 336 317 300 292 287 279 269 260 254 251 247 239 230 221 213 204 195 185 175 166 160 156 154 152 150 147 145 144 145 148 151 150 142 133 131 140 153 154 151 147 140 133 128 118 79 37 10
333 334 334 334 332 335 346 347 339 331 327 325 323 324 327 329 332 335 335 336 342 346 349 354 354 350 352 357 354 347 349 354 352 347 346 348 350 348 341 330 315 302 294 288 277 265 257 252 245 236 227 219 210 197 184 174 166 161 158 157 155 152 150 148 146 146 148 153 155 150 142 138 140 146 151 151 149 146 139 131 121 104 54 12 342
323 327 332 337 335 335 341 342 337 332 330 331 330 329 329 331 335 340 345 354 4 7 6 3 359 352 349 352 354 354 352 353 352 350 352 358 3 0 352 341 330 320 310 301 287 269 258 252 244 232 222 212 201 189 177 169 164 161 160 156 151 149 149 146 143 146 152 156 154 148 141 139 141 141 136 132 134 137 136 129 109 59 29 52 18
315 322 331 335 328 329 338 342 341 338 337 338 337 334 334 340 349 359 10 15 16 16 11 1 354 351 350 351 355 355 348 345 347 347 348 0 15 17 10 355 342 334 323 305 287 268 255 246 234 220 207 196 186 178 170 163 157 154 153 150 147 146 145 143 142 148 154 153 149 145 141 142 143 138 129 125 130 137 143 138 109 87 109 83 32
312 319 326 325 314 321 331 338 345 349 346 343 342 343 350 11 30 30 23 17 10 8 7 1 357 356 356 354 355 352 345 343 347 347 348 360 15 20 20 15 7 2 357 335 292 247 223 208 198 191 183 173 167 161 156 150 147 146 147 147 144 140 138 138 143 150 151 148 146 144 145 149 148 141 136 136 139 146 156 149 139 156 152 46 11
309 316 318 308 295 309 321 331 346 356 352 348 353 8 34 49 45 28 18 15 9 6 8 9 8 8 7 2 358 354 353 356 360 356 356 5 17 23 29 31 26 23 33 52 77 138 152 146 146 153 155 151 148 146 144 143 145 147 150 150 144 137 134 140 148 152 150 149 150 151 151 152 150 145 146 147 144 142 146 149 162 197 291 356 11
301 311 312 297 283 293 305 317 336 350 350 349 355 21 61 53 34 25 23 18 11 11 15 14 12 12 13 9 4 3 8 17 20 15 11 17 23 28 37 46 51 55 68 81 91 111 127 128 128 131 134 136 137 139 142 146 151 154 153 149 142 137 141 151 158 160 158 154 155 155 154 154 155 156 155 150 141 140 150 166 211 271 323 3 31
292 310 312 295 282 283 288 295 312 328 339 344 347 360 50 46 32 29 25 18 14 17 17 9 6 11 17 18 17 21 27 30 31 31 36 41 42 44 53 70 84 89 92 99 105 112 119 122 123 125 127 131 134 138 142 148 152 151 146 141 139 146 156 162 165 166 164 159 158 157 157 157 160 161 157 152 153 158 158 167 265 289 358 52 48
284 313 318 302 287 283 279 282 295 308 321 335 339 338 17 37 31 27 22 17 20 20 10 1 7 17 23 27 33 39 45 47 46 49 57 62 66 71 78 90 104 110 112 118 124 127 125 124 125 126 127 128 132 136 139 142 144 142 139 141 150 160 164 165 165 164 165 165 163 162 162 162 161 159 158 161 165 167 147 70 25 96 115 84 40
276 313 325 314 296 285 280 281 293 305 318 334 332 316 320 31 30 31 26 22 25 21 8 7 21 29 31 40 50 56 62 64 62 65 71 76 79 81 85 95 107 113 115 118 120 122 120 119 119 119 118 118 122 126 129 130 132 136 143 156 164 164 161 159 159 158 158 162 165 165 165 163 160 159 163 165 165 163 133 68 69 79 78 54 36
265 306 326 321 305 292 284 283 293 309 330 343 327 270 202 57 28 36 35 29 31 29 18 20 35 43 46 54 63 67 70 72 71 73 78 82 85 88 92 97 103 107 108 108 105 102 103 104 104 104 104 104 104 106 107 111 119 131 145 157 161 160 157 155 154 151 150 156 164 167 165 162 163 166 169 169 167 161 146 111 70 54 53 58 60
253 293 320 320 310 296 284 283 296 315 335 341 310 232 193 175 26 40 42 37 41 43 35 38 55 64 65 70 76 81 85 87 86 85 86 89 93 97 99 100 102 103 103 103 101 99 100 102 103 103 104 104 104 104 105 108 113 122 135 149 156 158 155 153 152 154 157 160 165 166 164 163 166 170 170 166 158 147 139 118 73 59 60 61 62
241 276 311 317 309 284 271 284 307 321 333 334 290 210 181 161 65 47 47 45 53 65 71 75 79 81 82 85 90 94 97 98 95 94 95 96 98 100 102 102 104 105 105 104 103 104 104 106 108 108 108 107 107 106 105 107 111 116 127 144 154 153 150 148 148 151 154 154 157 161 163 166 170 171 166 159 153 148 147 143 100 84 74 58 50
232 254 293 308 298 258 243 261 292 319 335 335 272 195 176 149 81 54 52 54 70 86 96 99 96 93 93 97 101 103 104 102 100 99 99 100 100 102 104 105 105 106 106 106 107 109 109 109 109 109 108 108 108 108 107 111 119 126 133 142 146 145 142 140 139 138 140 144 151 158 165 171 177 178 168 157 158 159 166 183 146 95 81 52 37
225 234 262 285 269 232 230 243 249 265 316 327 235 190 176 155 114 78 69 80 91 94 98 104 105 102 101 104 107 108 107 105 103 100 98 98 99 100 101 102 103 104 105 108 111 113 114 113 112 112 113 115 117 118 115 115 120 128 134 138 140 138 137 136 135 137 142 148 155 164 172 178 182 181 171 157 153 160 176 201 206 118 90 56 36
Height
798 799 801 802 803 804 806 808 809 811 813 814 816 817 819 820 821 822 823 824 824 825 826 827 828 828 829 831 832 833 834 835 835 836 837 837 837 837 838 838 839 839 840 840 841 841 841 842 842 843 843 845 846 848 850 852 853 854 855 856 856 857 858 858 860 861 863 865 866 867 868 869 870 870 871 871 872 872 873 873 873 874 874 874 874
798 798 799 801 803 804 805 807 809 811 813 815 816 817 818 819 821 822 823 824 825 825 826 827 828 829 830 831 832 834 834 835 836 837 837 838 838 838 839 839 840 840 841 842 842 843 843 843 843 843 844 845 846 847 849 851 852 853 854 855 855 856 858 858 859 861 862 864 865 866 867 868 868 869 870 870 871 872 872 872 873 873 873 873 874
799 799 801 802 803 804 805 807 809 812 813 815 816 817 818 819 820 822 823 824 825 826 827 828 829 829 830 832 833 834 835 836 836 837 838 838 839 839 840 840 841 841 842 843 844 844 844 844 844 845 845 845 846 847 849 850 851 851 852 853 854 855 857 858 858 860 861 862 864 864 865 866 867 868 869 869 870 871 871 872 872 872 872 873 873
801 801 802 804 804 805 806 808 810 812 814 815 817 818 819 820 821 823 824 825 826 827 828 829 830 830 831 832 833 834 835 836 837 837 838 839 839 840 840 841 841 842 843 844 845 845 846 846 846 846 847 847 847 848 849 850 851 851 851 852 853 854 856 857 858 859 860 861 862 863 864 865 866 867 868 868 869 870 870 871 871 871 871 872 872
801 800 801 803 805 805 807 808 810 812 814 815 816 818 819 821 822 824 825 826 827 828 829 830 831 831 832 833 834 835 835 836 837 837 838 839 839 840 841 841 842 843 843 844 845 846 846 847 847 847 848 848 849 849 850 850 851 851 851 852 852 854 855 857 858 858 859 860 861 862 864 864 865 866 867 867 868 868 869 870 870 870 870 870 871
799 799 800 802 805 807 808 809 810 811 813 814 816 817 819 821 822 824 825 826 828 829 830 831 832 832 833 834 834 835 836 836 837 837 838 838 839 840 841 842 842 843 844 845 846 846 847 847 848 848 848 849 849 849 850 850 851 851 851 852 853 854 855 857 857 858 859 860 861 862 862 863 864 865 865 866 866 867 868 869 869 869 869 869 870
797 799 801 804 807 808 808 809 810 811 813 814 815 817 819 820 822 823 825 826 828 830 831 832 832 833 834 834 835 835 836 836 837 837 838 838 839 840 841 842 842 843 844 845 846 847 847 848 848 848 849 849 849 849 850 850 851 851 852 852 853 854 855 856 857 858 859 859 860 861 861 862 863 863 864 865 865 866 866 867 868 868 868 869 870
798 799 801 804 806 807 808 810 810 812 813 814 816 817 819 821 822 823 825 826 828 830 831 832 833 833 834 835 835 836 836 836 837 837 838 838 839 839 840 841 842 843 844 845 846 846 847 848 848 848 849 849 849 849 849 850 850 851 852 852 853 854 855 856 856 857 858 859 859 860 860 861 861 862 863 863 863 864 864 865 866 867 867 868 869
799 800 801 804 806 808 809 810 811 812 813 815 817 819 820 822 824 824 825 826 828 830 831 832 833 833 834 835 835 836 836 836 836 837 838 838 839 840 840 841 842 843 844 845 845 846 846 847 847 848 848 848 848 849 849 850 850 851 852 852 853 854 854 855 856 856 857 858 858 859 859 859 860 860 861 861 861 862 862 863 864 865 866 867 868
800 801 802 805 808 810 811 811 812 812 814 816 818 820 821 823 825 825 826 827 828 829 830 831 832 833 833 834 835 835 836 836 837 837 838 839 839 840 841 841 842 843 844 844 845 845 846 846 846 847 847 847 848 848 848 849 850 850 851 851 852 853 854 855 855 856 856 857 857 858 858 858 858 859 859 859 859 860 861 861 862 864 865 866 866
801 802 804 806 809 811 812 813 813 814 816 818 820 822 823 824 826 826 826 827 828 828 829 830 831 832 833 833 834 835 836 837 837 838 838 839 840 840 841 842 842 843 843 844 844 845 845 846 846 846 846 847 847 847 848 849 849 850 850 851 851 852 853 854 854 855 855 856 856 857 856 856 857 857 858 858 858 858 859 860 861 862 863 864 864
803 804 807 808 810 812 812 813 814 815 818 820 821 823 825 825 826 826 826 826 827 827 828 829 830 831 831 832 833 835 836 836 837 838 839 839 840 841 841 842 842 843 843 844 844 844 845 845 845 845 846 846 846 847 847 848 849 849 850 851 851 852 852 853 853 853 854 854 855 855 855 855 855 856 856 856 857 857 858 859 859 860 861 862 863
805 807 809 810 811 812 812 813 815 817 819 821 822 824 825 825 825 825 825 826 826 827 828 828 829 830 830 831 832 833 835 836 837 838 838 839 840 840 841 841 842 842 843 843 843 844 844 845 845 845 845 845 845 845 846 847 848 849 849 850 850 850 851 851 851 851 852 852 852 853 853 853 854 854 855 855 856 856 857 858 859 859 860 861 861
808 810 812 812 813 813 814 815 816 817 819 821 822 823 824 824 824 825 825 826 826 826 828 828 829 829 830 830 831 832 834 835 836 837 838 838 839 840 840 840 840 841 841 842 842 842 843 843 843 843 843 843 844 844 844 845 846 847 847 848 848 848 848 848 849 849 849 849 850 850 851 851 852 852 853 854 854 855 855 856 857 858 859 859 859
813 814 816 816 817 816 817 818 818 818 820 821 822 822 823 824 825 826 826 826 826 827 828 828 829 829 829 830 830 832 833 835 835 836 837 838 838 838 838 838 839 839 839 840 840 840 841 841 841 841 841 841 842 842 842 843 843 844 844 844 845 845 846 846 846 846 847 847 847 848 848 849 850 851 851 852 853 853 854 855 856 856 857 857 858
817 818 819 821 821 820 820 820 820 820 821 822 822 823 825 826 826 827 827 827 827 828 828 828 828 828 828 828 829 830 832 834 835 835 836 837 837 837 836 836 836 837 837 837 838 838 839 839 839 839 839 839 839 840 840 840 841 841 840 841 842 843 843 844 844 844 844 845 845 846 846 847 848 848 849 849 850 852 853 854 854 854 855 856 858
821 822 822 823 823 823 823 823 823 824 823 823 824 825 826 827 827 827 828 828 828 828 828 828 828 828 828 828 828 829 830 831 832 833 834 834 834 834 834 834 834 834 834 835 835 835 836 836 836 836 836 836 837 837 837 837 837 837 837 838 840 841 841 842 842 842 842 842 843 844 845 845 846 847 847 847 849 850 851 852 852 853 854 855 857
825 826 826 827 827 827 827 827 827 826 825 825 826 827 827 828 828 829 829 829 829 829 828 828 828 828 828 828 828 828 829 830 830 830 831 832 831 832 832 832 832 832 832 832 832 832 832 833 834 833 833 833 834 834 834 833 832 833 834 836 837 838 839 840 841 840 840 841 841 842 843 844 845 845 846 846 847 848 849 850 850 852 853 854 855
829 830 831 831 830 830 830 830 830 830 829 828 828 829 829 829 830 830 829 829 829 828 828 827 827 828 828 828 828 828 828 829 829 829 830 830 830 830 829 829 830 829 829 830 829 829 830 830 831 831 831 831 831 831 830 829 830 832 834 835 835 836 837 839 839 839 839 839 840 841 841 843 844 844 845 845 846 847 848 848 849 850 851 852 853
833 833 833 832 832 831 831 832 833 833 833 833 832 831 831 830 830 829 828 828 827 827 827 827 827 828 828 828 828 828 828 828 828 829 829 829 829 828 828 828 828 827 827 827 827 827 827 827 828 828 828 828 828 828 827 827 829 831 833 832 832 832 835 837 837 837 837 838 838 839 840 841 842 843 843 844 845 846 846 847 848 849 850 850 851
835 834 834 833 832 832 832 834 835 835 836 835 834 833 831 830 830 829 829 828 827 827 827 827 828 828 829 829 829 829 828 828 828 828 828 829 828 828 827 827 827 827 826 825 825 825 825 825 825 826 826 825 825 825 825 825 826 826 827 829 829 830 832 833 834 834 835 836 836 837 839 840 841 842 842 843 843 844 845 846 847 848 848 849 849
836 836 835 835 834 834 834 835 836 836 835 835 834 833 832 831 830 830 829 829 829 828 828 828 828 829 829 829 830 830 829 829 828 828 828 828 828 828 827 826 826 825 824 823 823 822 822 822 822 823 823 823 823 822 822 822 822 822 824 826 827 828 828 829 831 832 833 834 835 836 838 839 840 841 841 842 842 843 844 845 846 846 847 847 848
837 837 836 836 836 836 836 836 836 836 835 834 833 833 832 831 830 830 830 830 829 829 829 829 829 829 829 829 829 829 829 829 829 828 827 827 827 826 826 825 824 823 822 820 820 819 819 819 819 820 820 820 820 820 820 820 820 820 822 824 824 825 826 827 829 830 830 831 832 834 836 838 839 839 840 840 841 843 844 844 844 845 845 846 846
838 837 837 837 837 836 837 836 836 835 835 834 833 832 832 831 831 831 830 830 830 830 829 829 829 829 829 829 829 829 828 828 827 827 826 825 824 823 822 822 821 820 819 817 816 816 815 815 815 816 817 817 818 818 818 818 818 818 820 821 821 822 823 824 826 827 828 829 830 831 834 836 837 838 839 840 841 842 843 844 844 844 844 845 845
838 838 838 838 837 837 837 837 836 836 835 834 833 833 832 832 831 831 830 830 830 829 829 829 829 829 829 828 828 828 827 826 825 825 824 823 822 821 820 819 818 817 815 814 813 812 811 811 811 812 812 813 814 814 814 815 815 816 817 818 819 820 820 822 824 825 826 827 829 830 833 834 836 837 838 840 841 842 843 843 843 843 844 844 845
839 839 839 839 838 838 838 837 837 836 835 834 834 833 832 831 831 830 830 829 829 829 828 828 828 828 827 827 826 825 825 824 823 822 822 821 819 819 817 816 816 815 813 811 810 809 808 807 807 807 808 808 809 810 810 811 812 813 814 814 815 816 817 818 820 821 823 825 827 829 831 833 835 837 839 840 842 843 843 843 842 843 844 844 844
839 839 839 839 838 838 837 837 836 836 835 834 833 832 831 831 830 829 828 828 828 827 827 827 826 825 824 823 822 821 821 821 820 819 819 818 816 816 814 813 813 812 810 809 807 806 805 804 804 804 804 804 805 805 806 807 808 809 811 812 813 813 813 814 815 816 819 822 824 827 830 832 834 836 839 840 842 842 843 842 842 843 843 843 843
837 837 837 837 837 836 836 835 834 834 833 832 832 831 830 829 828 828 827 826 826 825 825 824 824 823 822 820 819 818 817 817 817 816 816 815 814 812 811 811 810 809 808 806 805 803 802 802 801 801 801 801 802 802 803 803 804 806 807 809 811 812 812 813 814 815 817 820 823 826 829 831 833 836 838 840 841 841 842 842 841 842 842 842 842
835 835 835 834 834 834 833 833 833 832 831 831 830 829 829 828 827 826 825 825 824 824 823 823 822 821 820 819 818 816 815 815 815 814 814 813 812 810 809 808 807 806 805 804 803 802 801 800 799 799 799 799 799 800 800 801 802 803 804 806 808 811 813 814 815 817 819 821 823 826 829 831 834 836 837 839 840 840 840 840 840 840 840 840 841
834 834 833 833 833 832 832 832 831 831 830 829 828 828 828 827 826 825 824 823 823 823 822 822 821 820 819 818 817 816 814 813 812 812 811 810 809 808 807 806 804 804 803 802 801 800 799 799 798 798 798 798 798 798 799 800 800 801 802 803 806 809 812 815 817 819 821 823 824 827 830 832 834 835 836 837 838 838 839 838 838 838 839 840 841
833 833 833 833 832 832 832 831 831 830 830 829 828 827 826 825 824 824 823 823 822 822 822 821 820 819 818 817 815 814 813 811 810 809 808 807 806 805 804 803 802 801 800 800 799 799 798 797 796 796 796 796 796 796 797 798 799 800 801 802 804 807 810 814 817 820 821 823 826 829 832 833 834 835 835 836 836 836 837 836 837 838 839 840 842
834 834 834 834 833 833 832 832 831 830 830 829 828 827 826 824 822 822 822 822 821 821 821 820 819 818 817 815 813 811 810 809 808 806 805 804 803 802 800 799 799 798 798 797 797 797 796 796 795 794 794 794 794 794 795 796 798 799 799 801 804 806 809 812 816 819 821 823 826 830 832 833 834 835 835 835 835 835 835 835 836 838 839 841 842
836 836 835 835 834 834 833 833 832 831 830 829 828 828 827 825 823 821 820 820 820 820 819 819 817 816 815 813 811 809 807 806 805 803 802 801 799 798 797 796 795 795 794 794 794 794 794 794 793 793 793 793 793 794 794 795 797 798 800 801 803 806 809 813 816 819 821 824 827 829 831 833 833 834 834 834 834 834 834 835 836 838 839 840 841
837 837 836 836 835 834 834 833 832 832 831 830 829 828 827 827 825 823 821 819 817 817 816 816 816 814 812 811 809 807 805 804 803 801 800 798 797 795 794 793 792 792 792 792 792 792 792 792 792 792 792 793 793 794 795 796 797 799 801 803 805 807 809 813 816 818 821 824 826 828 830 832 832 832 832 832 833 833 834 835 836 838 839 839 840
838 837 837 836 836 835 835 834 833 832 831 830 830 829 827 826 825 824 823 821 818 817 815 814 814 813 812 809 807 805 804 802 801 800 799 797 795 793 792 791 791 791 791 791 791 792 792 792 792 792 792 793 793 794 795 795 796 798 801 803 806 808 810 813 816 818 821 823 825 827 829 829 829 829 830 831 832 833 834 836 837 837 838 839 840
838 837 837 836 836 836 835 834 833 833 832 830 829 828 827 826 825 824 823 822 820 818 816 814 812 812 811 809 807 805 803 802 800 799 798 796 794 792 791 790 790 790 790 791 790 791 791 791 791 791 792 792 793 793 794 795 796 798 801 803 805 808 810 813 815 818 821 823 824 826 826 826 826 828 831 832 833 834 835 836 837 837 838 839 840
837 837 836 836 836 835 835 834 833 832 831 830 829 827 826 826 825 824 823 822 820 818 816 814 812 810 808 807 806 804 803 801 800 799 798 796 794 792 791 791 790 790 790 789 789 789 789 789 790 790 791 791 792 793 794 795 797 799 802 804 805 807 810 812 815 818 820 822 824 824 824 824 825 828 831 833 834 835 836 836 836 837 838 839 840
836 836 836 835 835 835 834 834 833 831 830 829 828 827 826 825 824 823 822 821 819 818 816 814 812 810 807 806 805 804 803 801 800 799 798 797 795 793 792 791 791 790 789 788 788 788 788 788 788 789 789 790 791 792 794 796 798 800 802 804 806 808 810 812 815 817 819 822 823 823 823 824 826 829 831 833 835 835 836 836 837 838 839 840 841
836 836 835 835 834 834 834 833 832 830 829 827 826 826 825 824 823 822 821 820 818 817 816 814 813 811 809 807 806 805 804 802 800 800 799 797 796 795 793 792 790 789 788 788 787 787 788 788 788 788 788 789 791 792 794 796 798 800 802 804 806 808 810 812 814 816 819 821 822 823 823 825 827 830 832 834 835 835 836 837 838 838 839 840 840
836 835 835 834 834 834 833 832 831 830 828 827 826 825 824 823 823 822 821 820 818 817 816 815 813 811 810 808 806 805 804 803 802 801 800 799 798 796 795 793 791 789 789 788 788 788 788 788 788 788 789 789 791 792 794 796 798 801 804 806 807 809 811 813 814 816 818 820 822 823 824 826 828 831 833 834 835 836 836 837 838 839 839 840 840
835 834 834 834 834 833 833 832 831 829 828 827 826 825 824 823 823 822 821 820 819 818 816 815 813 812 810 809 807 806 805 804 803 802 801 800 799 797 796 794 792 791 790 790 789 789 789 789 789 789 790 790 792 793 796 798 800 803 806 808 809 810 812 814 815 817 819 820 822 824 825 827 829 832 834 835 835 836 837 838 839 839 840 840 840
834 834 834 833 833 833 833 832 831 830 828 827 826 825 824 824 823 822 821 820 819 818 817 815 813 812 810 809 808 806 805 805 804 803 802 801 800 799 797 796 794 793 793 792 791 791 790 790 791 792 792 793 794 796 798 800 802 805 807 809 810 811 812 814 817 818 819 821 823 825 826 828 831 833 834 835 835 836 837 838 839 839 839 839 839
834 833 833 833 833 833 832 831 831 830 829 827 826 825 825 824 823 823 822 821 820 818 817 816 814 812 811 810 808 807 806 805 804 803 802 802 801 800 799 798 797 796 795 794 794 793 793 793 793 795 796 796 797 799 800 802 804 806 809 810 811 811 813 815 817 819 820 822 824 825 827 829 831 833 834 835 835 836 837 838 839 839 840 839 839
833 833 833 832 832 832 832 831 830 830 829 828 827 826 825 825 824 823 822 821 820 819 818 816 815 813 812 810 809 808 807 806 805 804 803 802 802 801 801 800 799 798 797 797 796 796 796 796 797 798 799 800 800 802 803 805 807 809 810 811 812 813 814 816 818 819 821 822 824 825 828 829 831 832 834 835 836 836 837 838 839 839 840 839 839
833 833 832 832 831 831 831 830 830 829 829 828 827 826 826 825 824 824 823 822 821 820 819 817 816 814 813 812 811 810 808 807 806 805 804 804 803 803 803 802 801 801 800 799 799 799 799 800 801 802 802 803 804 805 807 809 810 811 812 812 813 815 816 818 819 820 822 823 824 826 828 829 831 833 835 836 836 837 837 838 839 839 839 839 838
833 832 832 831 831 831 830 830 829 829 828 828 827 826 826 825 825 824 823 822 822 821 820 818 817 816 815 814 813 811 810 809 808 807 806 806 805 805 805 804 804 803 802 802 802 802 803 803 804 805 805 806 807 808 809 810 811 812 813 815 816 817 819 820 821 822 823 824 825 827 828 830 832 835 836 837 837 837 838 838 839 839 839 838 836
832 832 832 831 831 830 830 830 829 828 828 827 827 826 826 825 825 824 824 823 823 822 821 819 818 818 817 816 814 813 812 811 810 809 809 808 808 807 807 807 806 806 806 805 805 806 806 806 807 808 808 809 810 811 812 813 814 815 816 817 818 820 821 822 823 824 825 826 828 829 830 832 834 836 837 837 837 837 838 839 839 839 838 837 836
832 832 832 831 831 830 830 829 829 828 828 827 827 826 826 826 826 825 824 824 824 823 822 821 820 819 818 817 817 816 815 814 813 812 812 811 811 810 810 810 809 809 809 808 809 809 809 810 810 811 812 812 813 814 815 816 817 818 819 820 821 822 823 824 824 825 827 828 830 831 832 834 835 837 837 837 837 838 838 839 839 838 837 836 835
832 832 832 831 831 830 830 829 829 829 828 827 827 826 826 826 826 826 825 825 825 824 823 823 822 821 821 820 819 818 818 817 816 815 815 815 814 814 814 813 813 812 812 812 812 812 813 813 814 815 815 816 816 817 818 818 819 820 821 822 823 824 825 825 826 827 828 829 831 832 834 835 836 837 837 837 838 838 838 839 838 837 837 836 836
831 831 831 831 831 830 830 830 829 829 828 828 827 827 827 827 827 827 827 826 826 825 825 825 824 823 823 822 821 821 820 820 819 819 818 818 818 818 817 817 816 816 816 815 816 816 816 817 817 818 818 819 819 820 820 821 821 822 823 824 825 826 827 827 828 829 830 831 832 833 835 836 836 837 837 838 838 838 838 838 837 837 836 836 837
830 831 831 831 830 830 830 830 829 829 829 828 828 828 828 828 828 828 827 827 827 827 827 826 826 825 825 824 824 823 823 822 822 821 821 821 821 821 821 820 820 820 819 819 819 819 819 820 820 821 821 821 822 822 822 823 823 824 825 826 827 828 828 829 830 831 832 833 834 835 836 836 836 837 837 838 838 838 838 837 837 836 836 837 837